Regional Weather Roundup
Issued by NWS Cleveland, OH

Home | Current Version | Previous Version | Graphics & Text | Print | Product List | Glossary On
Versions: 1 2 3 4 5 6 7 8 9 10 11 12 13 14 15 16 17 18 19 20 21 22 23 24 25 26 27 28 29 30 31 32 33 34 35 36 37 38 39 40 41 42 43 44 45 46 47 48 49 50
000
ASUS41 KCLE 050200
RWRCLE
OHIO REGIONAL WEATHER ROUNDUP
NATIONAL WEATHER SERVICE WILMINGTON, OH
900 PM EST WED MAR 04 2015

NOTE: "FAIR" INDICATES FEW OR NO CLOUDS BELOW 12,000 FEET WITH NO
SIGNIFICANT WEATHER AND/OR OBSTRUCTIONS TO VISIBILITY.

OHZ001>008-015>018-024>027-034-035-043-044-050300-
   NORTHWEST OHIO

CITY           SKY/WX    TMP DP  RH WIND       PRES   REMARKS
DEFIANCE       CLOUDY    20   7  57 NW15      30.16F WCI   6
FINDLAY        CLOUDY    22   9  57 NW16      30.13R WCI   8
TOLEDO EXPRESS CLOUDY    19   5  54 NW16G24   30.15R WCI   4
TOLEDO EXEC    CLOUDY    22   6  50 NW20      30.15R WCI   7
LIMA           CLOUDY    22  11  62 NW16      30.14R WCI   8
$$

OHZ009>014-019>023-028>033-038-089-050300-
   NORTHEAST OHIO

CITY           SKY/WX    TMP DP  RH WIND       PRES   REMARKS
CLE-HOPKINS    CLOUDY    28  15  58 W22G28    30.11R WCI  14
CLE-LAKEFRONT  CLOUDY    29  21  72 W23       30.09R WCI  15
CUY CO. ARPT   CLOUDY    30  23  74 W15G23    30.08R WCI  19
LORAIN-ELYRIA  CLOUDY    27  14  58 NW17G29   30.10R WCI  14
ASHTABULA      CLOUDY    30  18  60 W12G18    30.03R WCI  20
AKRON-CANTON   CLOUDY    31  23  72 NW13      30.04R WCI  21
WOOSTER        NOT AVBL
MANSFIELD      CLOUDY    26  16  65 W9        30.06R WCI  17
YOUNGSTOWN     LGT SNOW  31  24  75 NW12G17   30.02R WCI  22
$$

OHZ042-051>053-060>062-070>072-077>081-050300-
  SOUTHWEST OHIO

CITY           SKY/WX    TMP DP  RH WIND       PRES   REMARKS
CINC-COVINGTON LGT SNOW  26  23  88 NW17      30.15R VSB 3/4 WCI  13
CINC-LUNKEN    LGT SNOW  27  25  92 N13       30.18R VSB 3/4 WCI  16
HAMILTON       LGT SNOW  27  25  93 NW7       30.18R FOG     WCI  19
DAYTON         NOT AVBL
WRIGHT-PAT AFB NOT AVBL
DAYTON GENERAL LGT SNOW  27  23  86 NW9       30.14R FOG     WCI  17
WILMINGTON     LGT SNOW  27  24  89 N9        30.12R VSB 3/4 WCI  18
$$

OHZ036-037-039>041-045>050-054>059-063>069-073>076-082>088-050300-
  CENTRAL AND SOUTHEAST OHIO

CITY           SKY/WX    TMP DP  RH WIND       PRES   REMARKS
COLUMBUS       LGT SNOW  28  25  88 NW10      30.11R FOG     WCI  19
OSU AIRPORT    LGT SNOW  28  23  81 NW13      30.11R WCI  17
BOLTON FIELD   NOT AVBL
RICKENBACK AFB NOT AVBL
NEWARK         LGT SNOW  30  26  85 NW6       30.09R FOG     WCI  24
MARION         CLOUDY    25  15  66 NW16      30.11R WCI  12
LANCASTER      LGT SNOW  30  28  93 NW9       30.10R VSB 3/4 WCI  22
ZANESVILLE     LGT SNOW  29  26  89 NW8       30.08R VSB 3/4 WCI  21
NEW PHILLY     LGT SNOW  32  26  78 W5        30.07R WCI  27
$$


USA.gov is the U.S. government's official web portal to all federal, state and local government web resources and services.